FW0153 Weather Reports


Display with metric or nautical units.
time (UTC)temp
F
wind
direction
speed
MPH
gust
MPH
rain 1hr
in
rain 24hr
in
rain mn
in
humidity
%
barometer
mb
20260508054005 71 149 4.0 0.0 0.00 0.02 0.00 95 1015.7
20260508053505 71 181 13.0 0.0 0.00 0.02 0.00 95 1015.7
20260508053004 71 176 9.0 0.0 0.05 0.02 0.00 95 1015.4
20260508052505 71 203 4.0 0.0 0.05 0.02 0.00 95 1014.4
20260508052005 71 106 0.0 0.0 0.00 0.01 0.00 95 1013.7
20260508051712 71 134 4.0 0.0 0.07 0.01 0.00 95 1013.3
20260508051008 71 76 0.0 0.0 0.07 0.01 0.00 95 1013.3
20260508050712 71 58 4.0 0.0 0.00 0.00 0.00 95 1013.7
20260508045712 71 46 4.0 0.0 0.00 0.00 0.00 95 1014.4
20260508045005 71 115 0.0 0.0 0.00 0.00 0.00 95 1014.0
20260508044504 71 76 0.0 0.0 0.00 0.00 0.00 95 1014.0
20260508044005 71 54 0.0 0.0 0.00 0.00 0.00 94 1013.7
20260508043505 71 144 4.0 0.0 0.00 0.00 0.00 94 1013.7
20260508043005 71 99 0.0 0.0 0.00 0.00 0.00 94 1014.0
20260508042505 71 105 4.0 0.0 0.00 0.00 0.00 94 1014.0
20260508042005 71 59 4.0 0.0 0.00 0.00 0.00 94 1014.0
20260508041505 71 49 0.0 0.0 0.00 0.00 0.00 93 1014.4
20260508041005 71 81 0.0 0.0 0.00 0.00 0.00 93 1014.4
20260508040505 71 88 4.0 0.0 0.00 0.00 0.00 93 1014.4
20260508040005 71 109 4.0 0.0 0.00 0.00 0.00 93 1014.4
20260508035505 71 64 0.0 0.0 0.00 0.00 0.00 93 1014.0
20260508035005 71 351 4.0 0.0 0.00 0.00 0.00 93 1014.4
20260508034505 71 323 13.0 0.0 0.00 0.00 0.00 93 1014.4
20260508034005 71 58 23.0 0.0 0.00 0.00 0.00 92 1014.0
20260508033713 71 31 4.0 0.0 0.00 0.00 0.00 92 1014.4
20260508033005 71 39 4.0 0.0 0.00 0.00 0.00 92 1014.4
20260508032505 71 34 4.0 0.0 0.00 0.00 0.00 92 1014.4
20260508032004 71 68 4.0 0.0 0.00 0.00 0.00 92 1014.4
20260508031505 71 70 4.0 0.0 0.00 0.00 0.00 91 1014.4
20260508031005 71 286 9.0 0.0 0.00 0.00 0.00 91 1014.0
20260508030505 71 320 4.0 0.0 0.00 0.00 0.00 91 1014.0
20260508030005 71 113 9.0 0.0 0.00 0.00 0.00 91 1014.0
20260508025505 71 46 4.0 0.0 0.00 0.00 0.00 91 1013.7
20260508025005 71 41 13.0 0.0 0.00 0.00 0.00 90 1014.0
20260508024505 71 302 13.0 0.0 0.00 0.00 0.00 90 1014.0
20260508024005 71 24 9.0 0.0 0.00 0.00 0.00 90 1013.7
20260508023713 71 277 18.0 0.0 0.00 0.00 0.00 90 1014.0
20260508023005 71 28 4.0 0.0 0.00 0.00 0.00 90 1014.4
20260508022505 71 47 13.0 0.0 0.00 0.00 0.00 89 1014.4
20260508022005 71 301 13.0 0.0 0.00 0.00 0.00 89 1014.0
20260508021505 71 6 4.0 0.0 0.00 0.00 0.00 89 1014.0
20260508021005 71 355 13.0 0.0 0.00 0.00 0.00 89 1013.7
20260508020504 71 302 13.0 0.0 0.00 0.00 0.00 89 1014.0
20260508020005 71 54 18.0 0.0 0.00 0.00 0.00 89 1014.0
20260508015505 71 342 13.0 0.0 0.00 0.00 0.00 89 1014.0
20260508015005 71 16 9.0 0.0 0.00 0.00 0.00 89 1013.7
20260508014505 71 247 9.0 0.0 0.00 0.00 0.00 89 1013.3
20260508014005 71 331 18.0 0.0 0.00 0.00 0.00 89 1013.3
20260508013505 71 31 13.0 0.0 0.00 0.00 0.00 89 1013.7
20260508013006 71 44 9.0 0.0 0.00 0.00 0.00 88 1013.3
20260508012505 71 20 18.0 0.0 0.00 0.00 0.00 89 1013.3
20260508012005 71 349 9.0 0.0 0.00 0.00 0.00 89 1013.7
20260508011505 71 80 9.0 0.0 0.00 0.00 0.00 88 1013.3
20260508011211 71 25 13.0 0.0 0.00 0.00 0.00 88 1013.3
20260508010505 71 29 9.0 0.0 0.00 0.00 0.00 88 1013.3
20260508010005 71 15 4.0 0.0 0.00 0.00 0.00 87 1013.0
20260508005505 71 342 13.0 0.0 0.00 0.00 0.00 87 1012.7
20260508005213 72 31 13.0 0.0 0.00 0.00 0.00 86 1012.7
20260508004504 72 1 9.0 0.0 0.00 0.00 0.00 86 1013.0
20260508004005 72 16 4.0 0.0 0.00 0.00 0.00 86 1013.0
20260508003505 72 17 23.0 0.0 0.00 0.00 0.00 86 1012.7
20260508003213 72 67 13.0 0.0 0.00 0.00 0.00 86 1013.0
20260508002505 72 36 9.0 0.0 0.00 0.00 0.00 86 1013.0
20260508002004 72 302 23.0 0.0 0.00 0.00 0.00 85 1013.3
20260508001505 72 29 4.0 0.0 0.00 0.00 0.00 85 1013.3
20260508001005 72 304 32.0 0.0 0.00 0.00 0.00 85 1013.3
20260508000712 73 345 27.0 0.0 0.00 0.00 0.00 84 1013.0
20260508000005 73 343 9.0 0.0 0.00 0.00 0.00 84 1012.7
20260507235505 73 38 23.0 0.0 0.00 0.00 0.00 84 1012.3
20260507235005 73 301 4.0 0.0 0.00 0.00 0.00 84 1012.7
20260507234505 73 63 23.0 0.0 0.00 0.00 0.00 84 1012.3
20260507234005 73 309 23.0 0.0 0.00 0.00 0.00 84 1012.3
20260507233505 73 29 27.0 0.0 0.00 0.00 0.00 83 1012.3
20260507233005 73 333 13.0 0.0 0.00 0.00 0.00 82 1012.3
20260507232711 74 345 23.0 0.0 0.00 0.00 0.00 82 1012.3
20260507232005 74 294 9.0 0.0 0.00 0.00 0.00 82 1012.0
20260507231505 74 27 9.0 0.0 0.00 0.00 0.00 82 1012.0
20260507231212 73 64 4.0 0.0 0.00 0.00 0.00 82 1012.0
20260507230713 74 83 4.0 0.0 0.00 0.00 0.00 82 1012.3
20260507230212 74 80 13.0 0.0 0.00 0.00 0.00 82 1012.3
20260507225505 74 38 18.0 0.0 0.00 0.00 0.00 82 1012.3
20260507225212 74 8 9.0 0.0 0.00 0.00 0.00 82 1012.3
20260507224505 74 87 18.0 0.0 0.00 0.00 0.00 82 1012.3
20260507224005 74 43 9.0 0.0 0.00 0.00 0.00 81 1012.3
20260507223505 74 322 9.0 0.0 0.00 0.00 0.00 82 1012.7
20260507223005 74 40 18.0 0.0 0.00 0.00 0.00 82 1012.7
20260507222505 74 37 4.0 0.0 0.00 0.00 0.00 82 1012.3
20260507222005 74 32 23.0 0.0 0.00 0.00 0.00 81 1012.7
20260507221505 74 329 23.0 0.0 0.00 0.00 0.00 81 1012.3
20260507221005 74 333 9.0 0.0 0.00 0.00 0.00 81 1012.3
20260507220505 74 15 4.0 0.0 0.00 0.00 0.00 81 1012.3
20260507220212 74 359 18.0 0.0 0.00 0.00 0.00 80 1012.3
20260507215505 74 41 18.0 0.0 0.00 0.00 0.00 81 1012.3
20260507215212 74 41 13.0 0.0 0.00 0.00 0.00 82 1012.7
20260507214505 74 151 4.0 0.0 0.00 0.00 0.00 81 1012.7
20260507214005 74 37 23.0 0.0 0.00 0.00 0.00 81 1012.7
20260507213505 74 32 4.0 0.0 0.00 0.00 0.00 81 1012.7
20260507213005 74 18 27.0 0.0 0.00 0.00 0.00 81 1012.3
20260507212504 74 331 18.0 0.0 0.00 0.00 0.00 80 1012.7
20260507212005 74 321 23.0 0.0 0.00 0.00 0.00 80 1012.7
20260507211505 75 340 27.0 0.0 0.00 0.00 0.00 80 1012.7
20260507211005 76 357 13.0 0.0 0.00 0.00 0.00 77 1012.7
20260507210505 76 21 9.0 0.0 0.00 0.00 0.00 78 1012.7
20260507210006 76 137 13.0 0.0 0.00 0.00 0.00 76 1012.7
20260507205505 75 31 4.0 0.0 0.00 0.00 0.00 78 1013.0
20260507205004 75 319 13.0 0.0 0.00 0.00 0.00 79 1013.0
20260507204505 75 53 9.0 0.0 0.00 0.00 0.00 79 1013.0
20260507204005 76 102 18.0 0.0 0.00 0.00 0.00 78 1013.3
20260507203505 76 12 13.0 0.0 0.00 0.00 0.00 77 1013.3
20260507203005 77 72 4.0 0.0 0.00 0.00 0.00 76 1013.3
20260507202505 77 65 9.0 0.0 0.00 0.00 0.00 76 1013.3
20260507202005 76 31 32.0 0.0 0.00 0.00 0.00 76 1013.3
20260507201505 76 78 9.0 0.0 0.00 0.00 0.00 76 1013.7
20260507201213 76 29 18.0 0.0 0.00 0.00 0.00 77 1013.7
20260507200505 76 5 13.0 0.0 0.00 0.00 0.00 77 1013.7
20260507200213 76 1 18.0 0.0 0.00 0.00 0.00 77 1013.3
20260507195505 76 28 27.0 0.0 0.00 0.00 0.00 77 1013.7
20260507195213 77 2 9.0 0.0 0.00 0.00 0.00 76 1014.0
20260507194712 76 93 9.0 0.0 0.00 0.00 0.00 78 1014.0
20260507194005 75 35 13.0 0.0 0.00 0.00 0.00 78 1014.0
20260507193504 75 28 18.0 0.0 0.00 0.00 0.00 79 1014.0
20260507193005 76 341 9.0 0.0 0.00 0.00 0.00 79 1014.0
20260507192505 75 37 13.0 0.0 0.00 0.00 0.00 79 1014.0
20260507192213 75 287 4.0 0.0 0.00 0.00 0.00 79 1014.4
20260507191505 76 325 18.0 0.0 0.00 0.00 0.00 78 1014.0
20260507191213 77 50 9.0 0.0 0.00 0.00 0.00 77 1014.4
20260507190712 77 333 23.0 0.0 0.00 0.00 0.00 78 1014.0
20260507190006 76 13 18.0 0.0 0.00 0.00 0.00 78 1014.4
20260507185505 77 30 18.0 0.0 0.00 0.00 0.00 77 1014.4
20260507185005 76 17 4.0 0.0 0.00 0.00 0.00 79 1014.4
20260507184505 76 233 18.0 0.0 0.00 0.00 0.00 78 1014.4
20260507184005 76 302 13.0 0.0 0.00 0.00 0.00 79 1014.4
20260507183714 75 39 18.0 0.0 0.00 0.00 0.00 80 1014.4
20260507183005 75 15 13.0 0.0 0.00 0.00 0.00 81 1014.7
20260507182505 74 294 9.0 0.0 0.00 0.00 0.00 82 1015.0
20260507182005 74 350 13.0 0.0 0.00 0.00 0.00 83 1014.7
20260507181505 74 4 13.0 0.0 0.00 0.00 0.00 83 1015.0
20260507181005 74 308 9.0 0.0 0.00 0.00 0.00 83 1015.0
20260507180505 74 309 9.0 0.0 0.00 0.00 0.00 84 1015.0
20260507180004 74 341 18.0 0.0 0.00 0.00 0.00 84 1015.4
20260507175505 73 304 23.0 0.0 0.00 0.00 0.00 85 1015.0
20260507175005 73 90 4.0 0.0 0.00 0.00 0.00 87 1015.0
20260507174505 73 37 4.0 0.0 0.00 0.00 0.00 86 1015.0
20260507174005 73 350 13.0 0.0 0.00 0.00 0.00 86 1015.0
20260507173505 73 318 13.0 0.0 0.00 0.00 0.00 87 1015.0
20260507173005 73 35 13.0 0.0 0.00 0.00 0.00 86 1015.4
20260507172505 73 16 4.0 0.0 0.00 0.00 0.00 86 1015.4
20260507172005 73 16 4.0 0.0 0.00 0.00 0.00 86 1015.0
20260507171505 73 314 9.0 0.0 0.00 0.00 0.00 86 1015.4
20260507171005 74 31 9.0 0.0 0.00 0.00 0.00 86 1015.0
20260507170505 74 27 9.0 0.0 0.00 0.00 0.00 85 1015.0
20260507170005 74 40 4.0 0.0 0.00 0.00 0.00 85 1015.4
20260507165505 74 16 13.0 0.0 0.00 0.00 0.00 85 1015.4
20260507165005 74 62 0.0 0.0 0.00 0.00 0.00 86 1015.0
20260507164504 74 11 13.0 0.0 0.00 0.00 0.00 85 1015.0
20260507164005 74 288 9.0 0.0 0.00 0.00 0.00 85 1015.0
20260507163505 74 78 0.0 0.0 0.00 0.00 0.00 86 1015.0
20260507163212 73 32 13.0 0.0 0.00 0.00 0.00 86 1015.0
20260507162505 73 294 9.0 0.0 0.00 0.00 0.00 86 1015.0
20260507162004 73 9 18.0 0.0 0.00 0.00 0.00 86 1015.4
20260507161505 73 66 9.0 0.0 0.00 0.00 0.00 86 1015.0
20260507161212 73 325 9.0 0.0 0.00 0.00 0.00 87 1015.0
20260507160505 72 8 4.0 0.0 0.00 0.00 0.00 88 1015.0
20260507160005 72 25 9.0 0.0 0.00 0.00 0.00 88 1015.0
20260507155713 72 329 18.0 0.0 0.00 0.00 0.00 88 1015.0
20260507155212 72 56 0.0 0.0 0.00 0.00 0.00 88 1015.0
20260507154505 73 26 4.0 0.0 0.00 0.00 0.00 88 1014.7
20260507154006 72 328 18.0 0.0 0.00 0.00 0.00 88 1014.7
20260507153505 72 348 23.0 0.0 0.00 0.00 0.00 88 1014.7
20260507153213 72 337 13.0 0.0 0.00 0.00 0.00 88 1015.0
20260507152504 72 26 13.0 0.0 0.00 0.00 0.00 88 1014.7
20260507152005 72 334 4.0 0.0 0.00 0.00 0.00 89 1014.7
20260507151505 72 114 0.0 0.0 0.00 0.00 0.00 89 1014.7
20260507151005 72 161 4.0 0.0 0.00 0.00 0.00 89 1014.4
20260507150505 72 335 4.0 0.0 0.00 0.00 0.00 90 1014.7
20260507150006 72 307 4.0 0.0 0.00 0.00 0.00 90 1014.4
20260507145505 72 309 13.0 0.0 0.00 0.00 0.00 90 1014.7
20260507145005 73 331 9.0 0.0 0.00 0.00 0.00 90 1014.4
20260507144505 73 346 4.0 0.0 0.00 0.00 0.00 90 1014.4
20260507144005 73 25 23.0 0.0 0.00 0.00 0.00 90 1014.4
20260507143504 73 68 4.0 0.0 0.00 0.00 0.00 90 1014.4
20260507143005 73 314 9.0 0.0 0.00 0.00 0.00 90 1014.4
20260507142505 73 56 9.0 0.0 0.00 0.00 0.00 90 1014.0
20260507142005 73 45 9.0 0.0 0.00 0.00 0.00 90 1014.0
20260507141505 73 5 4.0 0.0 0.00 0.00 0.00 91 1014.0
20260507141007 73 328 4.0 0.0 0.00 0.00 0.00 91 1014.0
20260507140505 73 29 9.0 0.0 0.00 0.00 0.00 91 1014.0
20260507140005 73 349 13.0 0.0 0.00 0.00 0.00 91 1013.7
20260507135505 73 333 27.0 0.0 0.00 0.00 0.00 90 1013.7
20260507135005 73 11 9.0 0.0 0.00 0.00 0.00 90 1013.7
20260507134505 73 73 9.0 0.0 0.00 0.00 0.00 90 1013.7
20260507134005 73 21 13.0 0.0 0.00 0.00 0.00 90 1013.3
20260507133505 73 17 18.0 0.0 0.00 0.00 0.00 90 1013.3
20260507133005 73 21 9.0 0.0 0.00 0.00 0.00 90 1013.3
20260507132505 74 357 23.0 0.0 0.00 0.00 0.00 90 1013.3
20260507132005 74 50 13.0 0.0 0.00 0.00 0.00 90 1013.0
20260507131505 74 32 4.0 0.0 0.00 0.00 0.00 89 1013.0
20260507131213 74 334 9.0 0.0 0.00 0.00 0.00 89 1013.0
20260507130505 74 10 13.0 0.0 0.00 0.00 0.00 88 1013.0
20260507125505 77 34 9.0 0.0 0.00 0.00 0.00 89 1012.3
20260507125005 77 149 4.0 0.0 0.00 0.00 0.00 90 1012.3
20260507124505 77 312 4.0 0.0 0.00 0.00 0.00 90 1012.3
20260507124005 77 43 4.0 0.0 0.00 0.00 0.00 90 1012.3
20260507123505 77 89 0.0 0.0 0.00 0.00 0.00 90 1012.3
20260507123212 77 53 4.0 0.0 0.00 0.00 0.00 90 1012.3